Weather History for KD50 - April, 2014

Change the Weather History Date:

Sunday, April 6, 2014

  Actual Average (KISN) Record (KISN)
Temperature  
Mean Temperature 44 °F 39 °F  
Max Temperature 55 °F 53 °F 78 °F (1910)
Min Temperature 32 °F 26 °F 1 °F (1936)
Degree Days  
Heating Degree Days 22 26  
Month to date heating degree days 161  
Since 1 July heating degree days 8036  
Cooling Degree Days 0 0  
Month to date cooling degree days 0  
Year to date cooling degree days 0  
Moisture  
Dew Point 33 °F    
Average Humidity 78    
Maximum Humidity 100    
Minimum Humidity 35    
Precipitation  
Precipitation 0.02 in 0.03 in 1.30 in (1895)
Month to date precipitation 0.16  
Year to date precipitation 1.85  
Sea Level Pressure  
Sea Level Pressure 29.75 in    
Wind  
Wind Speed 10 mph (SW)    
Max Wind Speed 24 mph    
Max Gust Speed 28 mph    
Visibility 10 miles    
Events Rain    
T = Trace of Precipitation, MM = Missing Value Source: NWS Daily Summary

Daily Weather History Graph

Daily Weather History Graph

Search for Another Location

Airport or City:

Trip Planner

Search our weather history database for the weather conditions in past years. The results will help you decide how hot, cold, wet, or windy it might be!

Date:

Astronomy

Apr. 06, 2014 Rise Set
Actual Time 7:20 AM CDT 8:31 PM CDT
Civil Twilight 6:47 AM CDT 9:04 PM CDT
Nautical Twilight 6:08 AM CDT 9:43 PM CDT
Astronomical Twilight 5:26 AM CDT 10:25 PM CDT
Moon 12:07 PM CDT (4/6) 2:46 AM CDT (4/6)
Length of Visible Light 14h 16m
Length of Day
13h 11m
Waxing Crescent, 44% of the Moon is Illuminated
Apr 6
Waxing Crescent
Apr 7
First Quarter
Apr 15
Full
Apr 22
Last Quarter
Apr 29
New

Hourly Weather History & Observations

Time (CDT) Temp. Windchill Dew Point Humidity Pressure Visibility Wind Dir Wind Speed Gust Speed Precip Events Conditions
12:15 AM 35.6 °F 28.0 °F 35.6 °F 100% 29.78 in 10.0 mi South 10.4 mph - N/A   Mostly Cloudy
12:35 AM 35.6 °F 27.1 °F 35.6 °F 100% 29.77 in 10.0 mi SSW 12.7 mph - N/A   Mostly Cloudy
12:55 AM 35.6 °F 26.6 °F 35.6 °F 100% 29.77 in 10.0 mi SSW 13.8 mph - N/A   Mostly Cloudy
1:15 AM 33.8 °F 25.3 °F 33.8 °F 100% 29.76 in 10.0 mi SSW 11.5 mph - N/A   Scattered Clouds
1:35 AM 33.8 °F 25.8 °F 33.8 °F 100% 29.76 in 10.0 mi SSW 10.4 mph - N/A   Mostly Cloudy
1:55 AM 35.6 °F 27.5 °F 35.6 °F 100% 29.75 in 10.0 mi SSW 11.5 mph - N/A   Mostly Cloudy
2:15 AM 35.6 °F 27.1 °F 35.6 °F 100% 29.75 in 10.0 mi SSW 12.7 mph - N/A   Overcast
2:35 AM 35.6 °F 27.1 °F 35.6 °F 100% 29.74 in 10.0 mi SSW 12.7 mph - N/A   Scattered Clouds
2:55 AM 35.6 °F 27.1 °F 35.6 °F 100% 29.74 in 10.0 mi SSW 12.7 mph - N/A   Clear
3:15 AM 35.6 °F 26.6 °F 35.6 °F 100% 29.73 in 10.0 mi SSW 13.8 mph - N/A   Partly Cloudy
3:35 AM 35.6 °F 27.1 °F 35.6 °F 100% 29.72 in 10.0 mi SSW 12.7 mph - N/A   Partly Cloudy
3:55 AM 33.8 °F 23.9 °F 33.8 °F 100% 29.71 in 10.0 mi SSW 15.0 mph - N/A   Partly Cloudy
4:15 AM 32.0 °F 22.5 °F 32.0 °F 100% 29.71 in 10.0 mi SSW 12.7 mph - N/A   Clear
4:35 AM 32.0 °F 21.6 °F 32.0 °F 100% 29.71 in 10.0 mi SSW 15.0 mph - N/A   Clear
4:55 AM 33.8 °F 25.3 °F 33.8 °F 100% 29.71 in 10.0 mi South 11.5 mph - N/A   Clear
5:15 AM 33.8 °F 24.8 °F 33.8 °F 100% 29.70 in 10.0 mi South 12.7 mph - N/A   Clear
5:35 AM 33.8 °F 26.4 °F 33.8 °F 100% 29.71 in 10.0 mi SSW 9.2 mph - N/A   Clear
5:55 AM 32.0 °F 24.2 °F 32.0 °F 100% 29.70 in 10.0 mi SW 9.2 mph - N/A   Clear
6:15 AM 32.0 °F 24.2 °F 32.0 °F 100% 29.70 in 10.0 mi SSW 9.2 mph - N/A   Clear
6:35 AM 32.0 °F 24.2 °F 32.0 °F 100% 29.70 in 10.0 mi SW 9.2 mph - N/A   Clear
6:55 AM 33.8 °F 25.8 °F 32.0 °F 93% 29.71 in 10.0 mi SW 10.4 mph - N/A   Scattered Clouds
7:15 AM 33.8 °F 28.6 °F 32.0 °F 93% 29.72 in 10.0 mi SSW 5.8 mph - N/A   Partly Cloudy
7:35 AM 32.0 °F 25.6 °F 32.0 °F 100% 29.72 in 10.0 mi SSW 6.9 mph - N/A   Mostly Cloudy
7:55 AM 33.8 °F 27.0 °F 30.2 °F 87% 29.72 in 10.0 mi South 8.1 mph - N/A   Overcast
8:15 AM 35.6 °F 29.9 °F 30.2 °F 81% 29.73 in 10.0 mi SW 6.9 mph - N/A   Mostly Cloudy
8:35 AM 33.8 °F 30.8 °F 32.0 °F 93% 29.73 in 10.0 mi SE 3.5 mph - N/A   Scattered Clouds
8:55 AM 35.6 °F 29.2 °F 32.0 °F 87% 29.73 in 10.0 mi SW 8.1 mph - N/A   Partly Cloudy
9:15 AM 37.4 °F 30.3 °F 32.0 °F 81% 29.73 in 10.0 mi SSW 10.4 mph - N/A   Clear
9:35 AM 39.2 °F 32.5 °F 32.0 °F 75% 29.73 in 10.0 mi SSW 10.4 mph - N/A   Scattered Clouds
9:55 AM 41.0 °F 35.2 °F 32.0 °F 70% 29.72 in 10.0 mi SW 9.2 mph - N/A   Mostly Cloudy
10:15 AM 41.0 °F 36.4 °F 32.0 °F 70% 29.73 in 10.0 mi SW 6.9 mph - N/A   Partly Cloudy
10:55 AM 46.4 °F 41.5 °F 32.0 °F 57% 29.73 in 10.0 mi WSW 10.4 mph - N/A   Mostly Cloudy
11:15 AM 44.6 °F 39.7 °F 30.2 °F 57% 29.73 in 10.0 mi WSW 9.2 mph - N/A   Mostly Cloudy
11:35 AM 46.4 °F 41.5 °F 32.0 °F 57% 29.74 in 10.0 mi WSW 10.4 mph - N/A   Mostly Cloudy
11:55 AM 48.2 °F - 32.0 °F 54% 29.74 in 10.0 mi West 9.2 mph - N/A   Scattered Clouds
12:15 PM 48.2 °F - 32.0 °F 54% 29.73 in 10.0 mi West 9.2 mph - N/A   Mostly Cloudy
12:35 PM 50.0 °F - 30.2 °F 47% 29.73 in 10.0 mi West 3.5 mph - N/A   Mostly Cloudy
12:55 PM 50.0 °F - 30.2 °F 47% 29.73 in 10.0 mi NNW 4.6 mph - N/A   Mostly Cloudy
1:15 PM 50.0 °F - 30.2 °F 47% 29.73 in 10.0 mi NW 3.5 mph - N/A   Mostly Cloudy
1:35 PM 53.6 °F - 30.2 °F 41% 29.72 in 10.0 mi West 11.5 mph 16.1 mph N/A   Scattered Clouds
1:55 PM 51.8 °F - 32.0 °F 47% 29.73 in 10.0 mi WSW 10.4 mph - N/A   Clear
2:15 PM 53.6 °F - 32.0 °F 44% 29.72 in 10.0 mi West 8.1 mph - N/A   Clear
2:35 PM 53.6 °F - 30.2 °F 41% 29.72 in 10.0 mi West 3.5 mph - N/A   Clear
2:55 PM 55.4 °F - 30.2 °F 38% 29.72 in 10.0 mi West 12.7 mph 19.6 mph N/A   Clear
3:15 PM 53.6 °F - 32.0 °F 44% 29.73 in 10.0 mi WNW 24.2 mph 27.6 mph N/A   Mostly Cloudy
3:35 PM 48.2 °F - 28.4 °F 46% 29.73 in 7.0 mi WNW 8.1 mph - N/A   Overcast
3:55 PM 50.0 °F - 28.4 °F 43% 29.73 in 10.0 mi West 3.5 mph - N/A   Partly Cloudy
4:15 PM 53.6 °F - 28.4 °F 38% 29.73 in 10.0 mi WSW 3.5 mph - N/A   Clear
4:35 PM 53.6 °F - 26.6 °F 35% 29.73 in 10.0 mi WNW 5.8 mph - N/A   Scattered Clouds
4:55 PM 50.0 °F - 32.0 °F 50% 29.75 in 10.0 mi NW 19.6 mph 26.5 mph N/A   Overcast
5:15 PM 46.4 °F 39.5 °F 41.0 °F 81% 29.77 in 3.0 mi NNE 17.3 mph 20.7 mph 0.02 in Rain Rain
5:35 PM 46.4 °F 41.1 °F 39.2 °F 76% 29.76 in 10.0 mi East 11.5 mph - 0.02 in   Mostly Cloudy
5:55 PM 48.2 °F - 37.4 °F 66% 29.76 in 10.0 mi ESE 9.2 mph - 0.02 in   Partly Cloudy
6:15 PM 48.2 °F - 32.0 °F 54% 29.77 in 10.0 mi SE 4.6 mph - N/A   Clear
6:55 PM 50.0 °F - 32.0 °F 50% 29.78 in 10.0 mi Calm Calm - N/A   Clear
7:15 PM 50.0 °F - 32.0 °F 50% 29.78 in 10.0 mi SSW 4.6 mph - N/A   Clear
7:35 PM 48.2 °F - 35.6 °F 62% 29.78 in 10.0 mi SSW 6.9 mph - N/A   Clear
7:55 PM 46.4 °F 43.5 °F 35.6 °F 66% 29.79 in 10.0 mi SSW 5.8 mph - N/A   Clear
8:15 PM 41.0 °F 37.1 °F 35.6 °F 81% 29.80 in 10.0 mi SSW 5.8 mph - N/A   Clear
8:35 PM 37.4 °F 32.1 °F 33.8 °F 87% 29.80 in 10.0 mi SW 6.9 mph - N/A   Clear
8:55 PM 37.4 °F 32.1 °F 35.6 °F 93% 29.81 in 10.0 mi SW 6.9 mph - N/A   Clear
9:15 PM 35.6 °F 30.7 °F 33.8 °F 93% 29.82 in 10.0 mi SW 5.8 mph - N/A   Clear
9:35 PM 33.8 °F 28.6 °F 32.0 °F 93% 29.83 in 10.0 mi SSW 5.8 mph - N/A   Clear
9:55 PM 33.8 °F 27.7 °F 33.8 °F 100% 29.83 in 10.0 mi SW 6.9 mph - N/A   Clear
10:15 PM 32.0 °F 25.6 °F 32.0 °F 100% 29.84 in 10.0 mi SW 6.9 mph - N/A   Clear
10:35 PM 32.0 °F 24.8 °F 32.0 °F 100% 29.84 in 10.0 mi SSW 8.1 mph - N/A   Clear
10:55 PM 32.0 °F 25.6 °F 32.0 °F 100% 29.84 in 10.0 mi SW 6.9 mph - N/A   Clear
11:15 PM 32.0 °F 26.4 °F 32.0 °F 100% 29.85 in 10.0 mi SW 5.8 mph - N/A   Clear
11:35 PM 32.0 °F 27.5 °F 32.0 °F 100% 29.86 in 10.0 mi SSW 4.6 mph - N/A   Clear
11:55 PM 32.0 °F 28.7 °F 32.0 °F 100% 29.86 in 10.0 mi SW 3.5 mph - N/A   Clear